Tracking 35275 objects as of 8-Sep-2026
HD Live streaming from Space Station
objects crossing your sky now

HULIANWANG DIGUI-144

Track HULIANWANG DIGUI-144 now!
10-day predictions


NORAD ID: 67442
Int'l Code: 2026-007H
Launch date: January 13, 2026
Source: People's Republic of China (PRC)
Launch site: Wenchang Satellite Launch Center (WSC)
Your satellite tracking list
Your tracking list is empty




NASA's NSSDC Master Catalog

Two Line Element Set (TLE):
1 67442U 26007H   26250.14299613 -.00000108  00000-0  35414-4 0  9999
2 67442  50.0087 151.6693 0000535 332.8184  27.2660 13.29329495 31697
Source of the keplerian elements: AFSPC